Погода в Махмутларе

Турция     36°30′00″N   32°07′49″E
темп.,
°C
ветер,
м/с
пор.,
м/с
влажн.,
%
обл.,
%
осадки,
мм/ч
давл.,
гПа
погр.,
м
10 апреля, сб
сб1000:00+8св4558100 0.1 1010323
03:00+6ссв4663100 1.1 1009502
06:00+4св7105551 0.4 1009719
09:00+6св5124099 0.4 10101480
12:00+8ссв6103352 0.0 10111734
15:00+10ссв383270 0.0 10101730
18:00+9ссв311363 0.0 10111869
21:00+5св33552 0.0 1013102
11 апреля, вс
вс1100:00+5св33540 0.0 101573
03:00+4св45540 0.0 1015142
06:00+3св55550 0.0 1015143
09:00+8св34380 0.0 1016823
12:00+12з02342 0.0 10161711
15:00+11юз224162 0.0 10171242
18:00+10ю014577 0.0 1018637
21:00+7св225456 0.0 102038
12 апреля, пн
пн1200:00+6св32545 0.0 102028
03:00+5св3355100 0.0 102039
06:00+6св335473 0.0 101952
09:00+11в223937 0.0 10191026
12:00+13юз33397 0.0 10191398
15:00+13юз434321 0.0 10191362
18:00+11юз225050 0.0 10201018
21:00+8ссз11675 0.0 102112
13 апреля, вт
вт1300:00+8св225912 0.0 102122
03:00+7св225814 0.0 102114
06:00+7св22585 0.0 102013
09:00+12юз11460 0.0 1020490
12:00+15юз32471 0.0 1020937
15:00+15юз32532 0.0 1020950
18:00+13юз21627 0.0 1020488
21:00+9ссв11772 0.0 102210
14 апреля, ср
ср1400:00+9ссв11760 0.0 102110
03:00+10всв217216 0.0 102011
06:00+9в1173100 0.0 102010
09:00+13ююз2163100 0.0 1020338
12:00+16юз425535 0.0 1020777
15:00+16юз325789 0.0 1019721
18:00+13зюз2271100 0.0 1019334
21:00+11ссв117988 0.0 101910